Date,Time,Air Temperature,Dewpoint,Windchill,Heat Index,RH,3m Max Wind Speed,3m Mean Wind Speed,3m Wind Direction,Rain,Solar Radiation
,,F,F,F,F,%,MPH,MPH,deg,in,MJ/m^2
2024-03-28,05:10,38.3,24.2,38.3,38.3,56.7,2,0.4,183.1,0.0,-0.00014978
2024-03-28,05:15,38,24.4,38.0,38,57.5,4.1,2.8,189.8,0.0,-0.00011305
2024-03-28,05:20,37.9,24.2,37.9,37.9,57.5,3.6,2.3,215.3,0.0,-0.00011937
2024-03-28,05:25,37.8,23.8,37.8,37.8,56.7,2.1,0.6,178,0.0,-0.00016877
2024-03-28,05:30,37.4,23.7,37.4,37.4,57.4,1.7,1.1,191.2,0.0,-0.00016567
2024-03-28,05:35,37.1,23.5,37.1,37.1,57.5,1.8,0.3,141.3,0.0,-0.00018764
2024-03-28,05:40,37.2,22.7,37.2,37.2,55.5,2,0.9,103.2,0.0,-0.00019057
2024-03-28,05:45,37,23.3,37.0,37,57.2,1.7,0.3,135.8,0.0,-0.00018825
2024-03-28,05:50,37.4,23.4,37.4,37.4,56.8,2,0.6,159.3,0.0,-0.00015575
2024-03-28,05:55,37.2,23.4,37.2,37.2,57.0,0.9,0.4,245,0.0,-0.00015857
2024-03-28,06:00,37.1,23.4,37.1,37.1,57.3,1.2,0.4,151.6,0.0,-0.00015029
2024-03-28,06:05,37.1,23.6,37.1,37.1,57.6,0,0,0,0.0,-0.00016105
2024-03-28,06:10,36.9,23.8,36.9,36.9,58.8,0,0,0,0.0,-0.00016472
2024-03-28,06:15,36.6,23.4,36.6,36.6,58.5,1.3,0.6,246.8,0.0,-0.00011978
2024-03-28,06:20,36.3,23.6,36.3,36.3,59.6,1.3,1,223.1,0.0,-0.00012108
2024-03-28,06:25,36.1,22.7,36.1,36.1,57.9,1.4,0.7,302.1,0.0,-0.00016245
2024-03-28,06:30,35.7,23.4,35.7,35.7,60.6,1.3,0.1,327.1,0.0,-0.00017878
2024-03-28,06:35,35.9,23.5,35.9,35.9,60.2,1.9,1.3,283,0.0,-0.00012787
2024-03-28,06:40,35.9,23.4,35.9,35.9,60.0,1.8,1.3,170.3,0.0,-0.00008546999
2024-03-28,06:45,35.6,23.4,35.6,35.6,60.7,1.4,0.3,175,0.0,-0.0000289
2024-03-28,06:50,35.5,23.3,35.5,35.5,60.9,1,0.4,212.9,0.0,0.00020204
2024-03-28,06:55,35.4,23.3,35.4,35.4,61.0,1.3,0.6,254.8,0.0,0.0006030099
2024-03-28,07:00,35.3,23.2,35.3,35.3,60.9,1.6,0.9,241.9,0.0,0.00124631
2024-03-28,07:05,35.2,23.1,35.2,35.2,60.9,0,0,0,0.0,0.00206073
2024-03-28,07:10,35.1,23.3,35.1,35.1,61.9,1.1,0.5,199.9,0.0,0.00303244
2024-03-28,07:15,34.9,23.1,34.9,34.9,61.9,0,0,0,0.0,0.008841619
2024-03-28,07:20,35.3,23.4,35.3,35.3,61.5,0,0,0,0.0,0.01747757
2024-03-28,07:25,35.8,23.3,35.8,35.8,60.1,0,0,0,0.0,0.02213096
2024-03-28,07:30,36.5,23.2,36.5,36.5,58.3,0,0,0,0.0,0.02812007
2024-03-28,07:35,37.1,23.3,37.1,37.1,57.1,0.2,0,202.8,0.0,0.03321564
2024-03-28,07:40,38,23.3,38.0,38,55.2,0.9,0.2,202.9,0.0,0.03847895
2024-03-28,07:45,39,22.9,39.0,39,52.1,1.4,0.2,182.3,0.0,0.04379401
2024-03-28,07:50,40.2,22.5,40.2,40.2,48.9,0.9,0.1,86.6,0.0,0.04905392
2024-03-28,07:55,41.1,22.3,41.1,41.1,46.8,0,0,0,0.0,0.05428368
2024-03-28,08:00,41.7,22.3,41.7,41.7,45.8,0,0,0,0.0,0.05977971
2024-03-28,08:05,42.7,22.1,42.7,42.7,43.6,1.4,0.2,176.2,0.0,0.06548199
2024-03-28,08:10,43.2,22.7,43.2,43.2,43.8,1.5,0.7,148.9,0.0,0.0710571
2024-03-28,08:15,43.9,22,43.9,43.9,41.5,2.2,1,137.8,0.0,0.07675728
2024-03-28,08:20,44.4,21.9,44.4,44.4,40.7,1.8,1,156.1,0.0,0.08234399
2024-03-28,08:25,44.3,21.7,44.3,44.3,40.3,2.3,0.9,207.4,0.0,0.08808599
2024-03-28,08:30,44.8,22.2,44.8,44.8,40.5,1.5,0.6,318.8,0.0,0.09388918
2024-03-28,08:35,44.9,21.3,44.9,44.9,38.9,2.6,1.5,194.3,0.0,0.09947304
2024-03-28,08:40,45.1,21.3,45.1,45.1,38.6,2.5,1.7,166.3,0.0,0.1052832
2024-03-28,08:45,46.1,21.4,46.1,46.1,37.2,1.5,0.4,179.4,0.0,0.1109956
2024-03-28,08:50,46.5,22.4,46.5,46.5,38.3,2.2,0.9,44.6,0.0,0.1167632
2024-03-28,08:55,47.5,23.4,47.5,47.5,38.4,1.8,0.5,25.4,0.0,0.1225225
2024-03-28,09:00,47.1,23.4,47.1,47.1,39.0,3.8,1.8,358.4,0.0,0.1280616
2024-03-28,09:05,47.7,23,47.7,47.7,37.6,2,0.8,283.8,0.0,0.1337711
2024-03-28,09:10,48.7,21.9,48.7,48.7,34.5,2.1,1,139.8,0.0,0.1397843
2024-03-28,09:15,50.1,22.4,50.1,50.1,33.4,0.9,0.1,151.7,0.0,0.1455773
2024-03-28,09:20,50.1,22.5,50.1,50.1,33.5,2.8,1.3,91.2,0.0,0.1517196
2024-03-28,09:25,50,23.6,50.0,50,35.4,2.6,1.4,125.6,0.0,0.1574217
2024-03-28,09:30,50.2,22.3,50.2,50.2,33.2,3,1.7,171.2,0.0,0.1630664
2024-03-28,09:35,51,22.5,51.0,51,32.5,5.4,1.7,181,0.0,0.1686859
2024-03-28,09:40,51.5,22.9,51.5,51.5,32.5,4.7,3,159.1,0.0,0.1742966
2024-03-28,09:45,52.2,22.9,52.2,52.2,31.5,3.8,2.5,160.4,0.0,0.1796147
2024-03-28,09:50,51.6,22.6,51.6,51.6,31.9,6.4,3.8,181.3,0.0,0.1845804
2024-03-28,09:55,51.8,22.7,51.8,51.8,31.8,5.4,3.2,205,0.0,0.1894157
2024-03-28,10:00,52.5,22.6,52.5,52.5,30.8,5.1,3.6,175.5,0.0,0.1948702
2024-03-28,10:05,53.3,22.7,53.3,53.3,30.2,4.7,2.4,171.4,0.0,0.2005599
2024-03-28,10:10,52.9,22.7,52.9,52.9,30.5,5.5,3.7,155.1,0.0,0.2054984
2024-03-28,10:15,53.8,23.8,53.8,53.8,30.9,6.1,3.8,147,0.0,0.2109425
2024-03-28,10:20,54.5,23,54.5,54.5,29.1,5.2,3.3,129,0.0,0.2154505
2024-03-28,10:25,54.9,23.1,54.9,54.9,28.8,5.3,3,140.6,0.0,0.2205708
2024-03-28,10:30,55.7,23.7,55.7,55.7,28.8,5.7,3,131.7,0.0,0.2262114
2024-03-28,10:35,56.3,25.2,56.3,56.3,29.9,6,2.6,205.4,0.0,0.2317553
2024-03-28,10:40,57.5,23.4,57.5,57.5,26.6,5.8,2.9,172.2,0.0,0.2377463
2024-03-28,10:45,58.2,23.8,58.2,58.2,26.3,6.3,3.3,154.4,0.0,0.2358583
2024-03-28,10:50,57.8,23.7,57.8,57.8,26.6,7.1,3.5,205.1,0.0,0.2435739
2024-03-28,10:55,58.2,23.8,58.2,58.2,26.4,4.6,2.8,217.9,0.0,0.2469499
2024-03-28,11:00,59.8,23.5,59.8,59.8,24.6,7,3.7,158.5,0.0,0.2520811
2024-03-28,11:05,59.5,24,59.5,59.5,25.5,5.8,3,171.9,0.0,0.2554018
2024-03-28,11:10,59.9,23.9,59.9,59.9,24.9,5.5,3.7,199.4,0.0,0.2584219
2024-03-28,11:15,60.6,23.1,60.6,60.6,23.5,8.2,5.3,185.4,0.0,0.2605711
2024-03-28,11:20,60.6,23.2,60.6,60.6,23.7,4.8,3.1,225.5,0.0,0.2654575
2024-03-28,11:25,61.9,23,61.9,61.9,22.4,6,3.9,196.9,0.0,0.2702006
2024-03-28,11:30,62.2,21.8,62.2,62.2,21,7.6,4.5,215.2,0.0,0.2733777
2024-03-28,11:35,62.6,21.8,62.6,62.6,20.8,7.2,4.4,166.3,0.0,0.2769489
2024-03-28,11:40,63.7,22.2,63.7,63.7,20.4,6.6,2.8,156.8,0.0,0.2788757
2024-03-28,11:45,63.6,21,63.6,63.6,19.3,10.1,5.6,156.8,0.0,0.2820184
2024-03-28,11:50,63.7,20,63.7,63.7,18.5,7.9,4.6,188.4,0.0,0.2842798
2024-03-28,11:55,64.7,20.2,64.7,64.7,18.0,9.3,3.8,175.5,0.0,0.2885865
2024-03-28,12:00,64,19.6,64.0,64,18.0,8,5.6,151.9,0.0,0.2897985
2024-03-28,12:05,64.3,18.4,64.3,64.3,16.9,12.1,5.8,135,0.0,0.2868072
2024-03-28,12:10,64,18.9,64.0,64,17.5,10.2,6.3,129.9,0.0,0.2951107
2024-03-28,12:15,64.5,19,64.5,64.5,17.2,7.4,4.5,153.3,0.0,0.2984273
2024-03-28,12:20,64.9,19.4,64.9,64.9,17.3,9.8,6.2,161.3,0.0,0.2962491
2024-03-28,12:25,65.3,19.8,65.3,65.3,17.3,7.8,4.2,143.8,0.0,0.2997858
2024-03-28,12:30,66.3,20.4,66.3,66.3,17.2,11.2,6,162.7,0.0,0.3020884
2024-03-28,12:35,65.9,21.7,65.9,65.9,18.4,10.6,6.9,156.9,0.0,0.3028194
2024-03-28,12:40,66.7,22.3,66.7,66.7,18.4,8.3,3.9,179.7,0.0,0.302344
2024-03-28,12:45,67,19.5,67.0,67,16.2,8.8,5.6,196,0.0,0.3034952
2024-03-28,12:50,66.4,22.5,66.4,66.4,18.8,7.3,4.1,234.6,0.0,0.3051285
2024-03-28,12:55,66.7,20.2,66.7,66.7,16.8,7.9,5.1,143.7,0.0,0.3076814
2024-03-28,13:00,66.8,20.3,66.8,66.8,16.8,8.6,4.5,145.7,0.0,0.310738
2024-03-28,13:05,68.4,19.3,68.4,68.4,15.2,10.4,5.6,175.1,0.0,0.3140821
2024-03-28,13:10,68.6,19.9,68.6,68.6,15.5,8.4,4.3,161.4,0.0,0.315034
2024-03-28,13:15,68,21.4,68.0,68,17.0,8.4,4.8,156.4,0.0,0.30392
2024-03-28,13:20,68.6,17.9,68.6,68.6,14.3,8.2,5.1,159.9,0.0,0.3234449
2024-03-28,13:25,69.1,20.7,69.1,69.1,15.8,8,3.4,146.4,0.0,0.3044657
2024-03-28,13:30,69,20.1,69.0,69,15.5,10,5.6,131.1,0.0,0.3053126
2024-03-28,13:35,69.8,17.8,69.8,69.8,13.6,9.2,6.6,163.5,0.0,0.3082081
2024-03-28,13:40,69.1,23.4,69.1,69.1,17.7,7.1,3.7,112.9,0.0,0.3081921
2024-03-28,13:45,70.9,18.1,70.9,70.9,13.3,9.9,4.9,155.2,0.0,0.3028135
2024-03-28,13:50,70.7,17.2,70.7,70.7,12.9,11.4,6.4,170.9,0.0,0.3056732
2024-03-28,13:55,71.7,16.7,71.7,71.7,12.2,8.4,4,220.3,0.0,0.303226
2024-03-28,14:00,69.9,21.4,69.9,69.9,15.8,7.6,4.2,344.2,0.0,0.3009281
2024-03-28,14:05,70.8,17.7,70.8,70.8,13.1,8.3,5.3,185.9,0.0,0.299016
2024-03-28,14:10,70.6,18.5,70.6,70.6,13.7,7.9,4.5,164.3,0.0,0.2931962
2024-03-28,14:15,71.2,20.4,71.2,71.2,14.5,7.8,3.8,140.6,0.0,0.2935532
2024-03-28,14:20,72.3,17.7,72.3,72.3,12.5,9.1,5.6,145,0.0,0.2911194
2024-03-28,14:25,72.7,17.2,72.7,72.7,12.0,7.6,4.7,173.4,0.0,0.2900262
2024-03-28,14:30,73.1,17,73.1,73.1,11.8,9.8,3.3,155.5,0.0,0.2870038
2024-03-28,14:35,72.1,18.5,72.1,72.1,13,9,5.4,161,0.0,0.284459
2024-03-28,14:40,72.3,17.9,72.3,72.3,12.6,12.8,7.4,116.1,0.0,0.2817396
2024-03-28,14:45,73,17.1,73.0,73,11.9,9.3,5,164.2,0.0,0.2802889
2024-03-28,14:50,73.2,15.9,73.2,73.2,11.2,9,6,188.2,0.0,0.2752967
2024-03-28,14:55,73,18.3,73.0,73,12.5,7.1,3.6,136.6,0.0,0.2760842
2024-03-28,15:00,73.6,17.9,73.6,73.6,12.0,9.3,4.4,159.6,0.0,0.273911
2024-03-28,15:05,73.6,18.1,73.6,73.6,12.2,5,2.9,197.4,0.0,0.2446617
2024-03-28,15:10,74.2,13.6,74.2,74.2,9.8,12,6.6,213.8,0.0,0.2586113
2024-03-28,15:15,74.6,15.6,74.6,74.6,10.5,6.7,4.5,210.9,0.0,0.2628989
2024-03-28,15:20,75.5,13.1,75.5,75.5,9.2,14.1,7.6,241.1,0.0,0.2544244
2024-03-28,15:25,75.5,11.9,75.5,75.5,8.7,12.1,7.1,206.2,0.0,0.2591683
2024-03-28,15:30,74.7,12.1,74.7,74.7,9.0,12,7.2,201.8,0.0,0.2546003
2024-03-28,15:35,74.8,12.2,74.8,74.8,9.0,11.1,6.2,230.1,0.0,0.2481443
2024-03-28,15:40,75.4,13,75.4,75.4,9.1,9.6,5.8,174.8,0.0,0.244299
2024-03-28,15:45,75.7,12.6,75.7,75.7,8.9,9.1,5.6,217.1,0.0,0.2399913
2024-03-28,15:50,75.7,10.8,75.7,75.7,8.2,12.8,7.4,224.9,0.0,0.2364345
2024-03-28,15:55,76,11.2,76.0,76,8.3,8.1,4.8,212,0.0,0.2317784
2024-03-28,16:00,76.7,11.7,76.7,76.7,8.3,8.6,5.1,206.1,0.0,0.2253251
2024-03-28,16:05,76.5,10.8,76.5,76.5,8.0,11.6,8.1,217.1,0.0,0.2214952
2024-03-28,16:10,76.4,10.6,76.4,76.4,8.0,8.9,4.6,202,0.0,0.2122682
2024-03-28,16:15,76.6,11.1,76.6,76.6,8.1,11.1,6.6,221.4,0.0,0.2117258
2024-03-28,16:20,77.5,12.1,77.5,77.5,8.2,10.9,6.8,224,0.0,0.2047634
2024-03-28,16:25,76.6,9.3,76.6,76.6,7.5,12.3,7.8,222.6,0.0,0.1919664
2024-03-28,16:30,76.7,9.3,76.7,76.7,7.4,10.7,6.6,245.7,0.0,0.1912772
2024-03-28,16:35,76.4,11.1,76.4,76.4,8.1,10.4,6.6,204.9,0.0,0.1941061
2024-03-28,16:40,76.3,13.6,76.3,76.3,9.1,10.1,6.5,247.9,0.0,0.1824696
2024-03-28,16:45,76.9,9,76.9,76.9,7.3,8.8,4.9,203.7,0.0,0.1826495
2024-03-28,16:50,77.3,9.8,77.3,77.3,7.5,8.9,4.9,203.7,0.0,0.156665
2024-03-28,16:55,76.4,9.2,76.4,76.4,7.5,14.3,7.7,215.7,0.0,0.1270539
2024-03-28,17:00,76.1,9.5,76.1,76.1,7.7,9.3,5.3,225.3,0.0,0.07890242
2024-03-28,17:05,75.9,10.7,75.9,75.9,8.1,6.7,4.7,231.8,0.0,0.1003404
2024-03-28,17:10,76.1,9.7,76.1,76.1,7.7,7.5,5.5,215.6,0.0,0.08340023
2024-03-28,17:15,76,10.8,76.0,76,8.2,7.5,5.3,233.3,0.0,0.1052537
2024-03-28,17:20,77.2,8.9,77.2,77.2,7.2,9.6,6.4,219.9,0.0,0.1683569
2024-03-28,17:25,76.5,10.1,76.5,76.5,7.7,9.1,6.7,236.7,0.0,0.1021527
2024-03-28,17:30,76.9,9.1,76.9,76.9,7.3,9.3,5.8,215.3,0.0,0.1376717
2024-03-28,17:35,77.1,8.8,77.1,77.1,7.2,6.7,4.3,200.8,0.0,0.1191894
2024-03-28,17:40,76.9,9.3,76.9,76.9,7.4,7.8,4.6,188.3,0.0,0.08990137
2024-03-28,17:45,76.6,9,76.6,76.6,7.4,8.1,5.6,239.4,0.0,0.09908929
2024-03-28,17:50,77,10.7,77.0,77,7.8,10.7,6.6,236.7,0.0,0.1145604
2024-03-28,17:55,76.8,9.4,76.8,76.8,7.5,7.9,4.3,222,0.0,0.04784926
2024-03-28,18:00,75.9,9.9,75.9,75.9,7.9,9.1,5.3,246.5,0.0,0.02959847
2024-03-28,18:05,75.5,10.5,75.5,75.5,8.2,10.8,6.8,252.7,0.0,0.04667603
2024-03-28,18:10,75.4,9.4,75.4,75.4,7.8,8.5,5.8,246.5,0.0,0.04597121
2024-03-28,18:15,75.6,10.1,75.6,75.6,8.0,9.1,6.1,225.9,0.0,0.06578173
2024-03-28,18:20,75.5,11,75.5,75.5,8.4,9.4,5.8,246.7,0.0,0.04774173
2024-03-28,18:25,75,10,75.0,75,8.1,9.5,6.6,252.7,0.0,0.03018246
2024-03-28,18:30,74.7,10.6,74.7,74.7,8.4,7.2,4.5,243,0.0,0.02528727
2024-03-28,18:35,74.6,11.1,74.6,74.6,8.7,7.5,5,253,0.0,0.03425246
2024-03-28,18:40,74.8,12.8,74.8,74.8,9.3,7.3,5.4,250.2,0.0,0.04732943
2024-03-28,18:45,74.8,12.1,74.8,74.8,9.0,6.7,5,252.5,0.0,0.04266537
2024-03-28,18:50,75.2,10.9,75.2,75.2,8.4,6.7,4.7,256.7,0.0,0.05406405
2024-03-28,18:55,75.3,10.8,75.3,75.3,8.3,10.8,4.8,237.3,0.0,0.04603506
2024-03-28,19:00,74.9,11.6,74.9,74.9,8.8,8.6,5.9,239.5,0.0,0.03693031
2024-03-28,19:05,74.6,12.3,74.6,74.6,9.1,5.5,3.8,230.1,0.0,0.02239915
2024-03-28,19:10,74.1,12,74.1,74.1,9.2,7.2,3.9,236,0.0,0.01043904
2024-03-28,19:15,73.8,12.8,73.8,73.8,9.6,5,3.4,238.2,0.0,0.007989819
2024-03-28,19:20,73.4,12.9,73.4,73.4,9.8,2.8,1.6,237.7,0.0,0.00409848
2024-03-28,19:25,72.9,12.7,72.9,72.9,9.8,3.8,2.1,208.5,0.0,0.00114319
2024-03-28,19:30,72.3,13.1,72.3,72.3,10.2,3.3,1.6,218.5,0.0,0.0005309799
2024-03-28,19:35,71.7,12.9,71.7,71.7,10.3,4.3,2.2,219.5,0.0,0.00014418
2024-03-28,19:40,71.6,13.3,71.6,71.6,10.5,4.3,2.4,230.3,0.0,-0.00004298
2024-03-28,19:45,71.1,13.5,71.1,71.1,10.8,2.4,1.4,240.5,0.0,-0.00021437
2024-03-28,19:50,70.6,13.4,70.6,70.6,11.0,1.3,0.7,236.4,0.0,-0.00029765
2024-03-28,19:55,69.7,13.7,69.7,69.7,11.5,1.2,0.6,200.9,0.0,-0.00030066
2024-03-28,20:00,68.9,14,68.9,68.9,11.9,2.1,1,164.5,0.0,-0.00030955
2024-03-28,20:05,68.1,16.2,68.1,68.1,13.5,1.7,1.2,168.7,0.0,-0.00031573
2024-03-28,20:10,66.8,16,66.8,66.8,14.0,1.2,0.6,202.3,0.0,-0.00031271
2024-03-28,20:15,65.8,16,65.8,65.8,14.5,0.5,0,136.4,0.0,-0.00031098
2024-03-28,20:20,65.3,15.7,65.3,65.3,14.5,0,0,0,0.0,-0.00026996
2024-03-28,20:25,64.7,16.2,64.7,64.7,15.2,0,0,0,0.0,-0.00026511
2024-03-28,20:30,64.8,16.2,64.8,64.8,15.2,0,0,0,0.0,-0.0002103
2024-03-28,20:35,64.7,16.5,64.7,64.7,15.4,0,0,0,0.0,-0.00022177
2024-03-28,20:40,64.5,17.1,64.5,64.5,15.9,0,0,0,0.0,-0.00022958
2024-03-28,20:45,64.6,16,64.6,64.6,15.1,1.1,0.6,128.9,0.0,-0.00019392
2024-03-28,20:50,65,16.1,65.0,65,14.9,1.8,1.2,146.4,0.0,-0.00017695
2024-03-28,20:55,64.7,16.4,64.7,64.7,15.3,1.2,0.3,144,0.0,-0.00022753
2024-03-28,21:00,64.1,17.5,64.1,64.1,16.4,1.3,0.3,166.6,0.0,-0.00020549
2024-03-28,21:05,63.7,17.2,63.7,63.7,16.4,0.9,0.8,196.6,0.0,-0.0001827
2024-03-28,21:10,63.1,17.5,63.1,63.1,16.9,0.8,0.1,167.3,0.0,-0.00024722
2024-03-28,21:15,62.8,16.9,62.8,62.8,16.7,1.2,0.6,170.2,0.0,-0.000184
2024-03-28,21:20,62.9,17,62.9,62.9,16.7,1.2,0.7,169.6,0.0,-0.00013874
2024-03-28,21:25,62.9,16.8,62.9,62.9,16.6,0.9,0.3,188.6,0.0,-0.00010464
2024-03-28,21:30,62.5,17.5,62.5,62.5,17.3,1.6,1.1,228.2,0.0,-0.00010102
2024-03-28,21:35,62.5,15.4,62.5,62.5,15.8,1.8,1.2,204,0.0,-0.0001019
2024-03-28,21:40,62.8,14.3,62.8,62.8,15.0,1.5,0.7,200.5,0.0,-0.00010608
2024-03-28,21:45,62.8,16.3,62.8,62.8,16.3,1.9,0.5,240.2,0.0,-0.00014011
2024-03-28,21:50,61.9,17.9,61.9,61.9,18.0,2.8,1.3,253.1,0.0,-0.00015079
2024-03-28,21:55,61.4,18.1,61.4,61.4,18.5,1.1,0.2,269.9,0.0,-0.00019083
2024-03-28,22:00,60.9,17.6,60.9,60.9,18.4,0,0,0,0.0,-0.00019422
2024-03-28,22:05,60.4,18.6,60.4,60.4,19.6,0,0,0,0.0,-0.00017809
2024-03-28,22:10,60.4,18.8,60.4,60.4,19.8,2.1,1.1,264.7,0.0,-0.00014862
2024-03-28,22:15,59.9,19.8,59.9,59.9,21.0,1.8,1,294.1,0.0,-0.00018098
2024-03-28,22:20,59.3,18.9,59.3,59.3,20.6,0,0,0,0.0,-0.00018593
2024-03-28,22:25,59.3,19,59.3,59.3,20.7,0,0,0,0.0,-0.00011263
2024-03-28,22:30,59.4,19.3,59.4,59.4,20.9,0,0,0,0.0,-0.00011546
2024-03-28,22:35,59.3,20,59.3,59.3,21.6,0,0,0,0.0,-0.00013581
2024-03-28,22:40,58.9,18.5,58.9,58.9,20.5,2.8,0.8,295.5,0.0,-0.00014309
2024-03-28,22:45,58.9,19,58.9,58.9,21.0,2.8,1.5,286.3,0.0,-0.00010623
2024-03-28,22:50,58.8,19.3,58.8,58.8,21.4,0.9,0.5,251,0.0,-0.00012232
2024-03-28,22:55,59,19.4,59.0,59,21.3,1.8,1.2,247,0.0,-0.00010156
2024-03-28,23:00,58.9,18.5,58.9,58.9,20.6,1.5,0.7,260.8,0.0,-0.00011815
2024-03-28,23:05,58.8,19.6,58.8,58.8,21.6,0.5,0.2,247.1,0.0,-0.00011437
2024-03-28,23:10,58.8,18.9,58.8,58.8,21.0,1.9,1.2,242.3,0.0,-0.00009474
2024-03-28,23:15,58.8,19.1,58.8,58.8,21.2,1.7,1.1,243.2,0.0,-0.00009151999
2024-03-28,23:20,58.8,18,58.8,58.8,20.2,1.4,0.9,126.7,0.0,-0.0001059
2024-03-28,23:25,58.7,18.6,58.7,58.7,20.8,1.9,0.5,243.9,0.0,-0.00012233
2024-03-28,23:30,58.4,20.1,58.4,58.4,22.4,2.3,1.3,274.5,0.0,-0.00012931
2024-03-28,23:35,58.1,19.7,58.1,58.1,22.3,0.3,0,223.8,0.0,-0.00017386
2024-03-28,23:40,57.7,19.5,57.7,57.7,22.4,1.4,0.5,231.4,0.0,-0.00015942
2024-03-28,23:45,57.4,19.5,57.4,57.4,22.6,1.3,0.2,236.1,0.0,-0.00015142
2024-03-28,23:50,57.3,20,57.3,57.3,23.2,1.6,0.5,215.9,0.0,-0.00012924
2024-03-28,23:55,57.6,18.1,57.6,57.6,21.2,2.6,1.6,174.3,0.0,-0.0001094
2024-03-29,00:00,57.6,21.3,57.6,57.6,24.3,1.9,1.5,149.7,0.0,-0.00015634
2024-03-29,00:05,57.4,20.4,57.4,57.4,23.6,1.3,0.9,148.3,0.0,-0.00021095
2024-03-29,00:10,57.4,20.3,57.4,57.4,23.5,1,0.6,141.5,0.0,-0.00021869
2024-03-29,00:15,56.5,21.6,56.5,56.5,25.6,2.2,0.9,258.4,0.0,-0.00022239
2024-03-29,00:20,55.9,21.5,55.9,55.9,26.0,1.9,1.4,262.9,0.0,-0.00016223
2024-03-29,00:25,55.7,21.9,55.7,55.7,26.6,1.3,0.5,261.7,0.0,-0.00020062
2024-03-29,00:30,55.2,21.8,55.2,55.2,27,0,0,0,0.0,-0.00023697
2024-03-29,00:35,54.9,20.9,54.9,54.9,26.3,0.9,0.3,200.5,0.0,-0.00018256
2024-03-29,00:40,54.5,21.4,54.5,54.5,27.3,0,0,0,0.0,-0.00019954
2024-03-29,00:45,54,20.3,54.0,54,26.5,0.7,0.2,192,0.0,-0.00019234
2024-03-29,00:50,54.2,20.2,54.2,54.2,26.2,1.3,0.4,75.7,0.0,-0.00021624
2024-03-29,00:55,53.9,20.3,53.9,53.9,26.6,1.8,0.9,97.3,0.0,-0.00022669
2024-03-29,01:00,54,20.1,54.0,54,26.2,2,0.7,94.3,0.0,-0.00021608
2024-03-29,01:05,53.7,19.7,53.7,53.7,26.2,0,0,0,0.0,-0.00022988
2024-03-29,01:10,53.5,19.4,53.5,53.5,25.9,2.3,0.7,106.2,0.0,-0.00022179
2024-03-29,01:15,54.4,19.2,54.4,54.4,24.9,2.4,0.9,114.7,0.0,-0.00022244
2024-03-29,01:20,54.8,18.3,54.8,54.8,23.6,3.2,1.8,112.7,0.0,-0.00021962
2024-03-29,01:25,55.7,18.5,55.7,55.7,23.0,3,2.1,123.4,0.0,-0.00019264
2024-03-29,01:30,55.1,19,55.1,55.1,24.1,1.2,0.7,126.9,0.0,-0.0002461
2024-03-29,01:35,53.7,20.2,53.7,53.7,26.6,1.3,0.7,208.9,0.0,-0.00021982
2024-03-29,01:40,53.1,19.5,53.1,53.1,26.5,1,0.4,195.9,0.0,-0.00021483
2024-03-29,01:45,52.8,19.8,52.8,52.8,27.1,2.3,1.6,160.4,0.0,-0.00018152
2024-03-29,01:50,52.9,20.4,52.9,52.9,27.7,2.1,0.7,182.2,0.0,-0.00019363
2024-03-29,01:55,52.6,22.1,52.6,52.6,30.1,1.3,0.5,175.4,0.0,-0.00019552
2024-03-29,02:00,52.9,18.1,52.9,52.9,25.1,2.8,1.5,184.2,0.0,-0.00014188
2024-03-29,02:05,54.5,18,54.5,54.5,23.5,2.8,1.4,143.2,0.0,-0.00013205
2024-03-29,02:10,53.9,18.3,53.9,53.9,24.4,3.7,1.6,270.1,0.0,-0.00018819
2024-03-29,02:15,53.1,19,53.1,53.1,25.9,3.8,1.2,251.3,0.0,-0.00021451
2024-03-29,02:20,52.5,18.6,52.5,52.5,26.0,1,0.1,211.2,0.0,-0.00021375
2024-03-29,02:25,51.7,18.9,51.7,51.7,27.1,2,0.8,201.9,0.0,-0.00020217
2024-03-29,02:30,51.7,20,51.7,51.7,28.6,0.9,0.4,248.2,0.0,-0.00016277
2024-03-29,02:35,50.9,20.1,50.9,50.9,29.4,0.7,0.1,231,0.0,-0.00013603
2024-03-29,02:40,50.7,20.2,50.7,50.7,29.8,1.6,1,225,0.0,-0.00006432
2024-03-29,02:45,50.5,19.9,50.5,50.5,29.7,0.4,0.1,219.6,0.0,-0.00008655
2024-03-29,02:50,50.6,19.1,50.6,50.6,28.5,0.6,0.2,16.2,0.0,-0.00008694999
2024-03-29,02:55,50.6,20.2,50.6,50.6,29.9,1.3,0.5,188.5,0.0,-0.00007346999
2024-03-29,03:00,50.4,21.1,50.4,50.4,31.2,0.7,0.1,217.7,0.0,-0.00008401
2024-03-29,03:05,50.5,20,50.5,50.5,29.7,1.3,0.8,202.5,0.0,-0.00005902
2024-03-29,03:10,51.2,18.9,51.2,51.2,27.7,2.2,1.3,182.7,0.0,-0.00007935999
2024-03-29,03:15,52,18.8,52.0,52,26.8,3,1.6,176.1,0.0,-0.00010109
2024-03-29,03:20,52.1,19.6,52.1,52.1,27.6,2.4,1.6,165,0.0,-0.00015494
2024-03-29,03:25,51.8,19.3,51.8,51.8,27.5,2.7,1.5,159.7,0.0,-0.00019156
2024-03-29,03:30,51.7,18.7,51.7,51.7,27.0,1.7,0.7,134.1,0.0,-0.00020653
2024-03-29,03:35,51.6,18.1,51.6,51.6,26.4,1.6,0.6,138.9,0.0,-0.00018708
2024-03-29,03:40,51.5,18.6,51.5,51.5,27.0,1.5,1,159.2,0.0,-0.00017649
2024-03-29,03:45,51,19.3,51.0,51,28.3,1.3,1,188.5,0.0,-0.000178
2024-03-29,03:50,50.3,20.3,50.3,50.3,30.4,1.6,1.1,221.4,0.0,-0.00017071
2024-03-29,03:55,49.9,18.8,49.9,49.9,28.9,2.1,1.2,238.5,0.0,-0.00015948
2024-03-29,04:00,49.9,19.9,49.9,49.9,30.3,1.1,0.4,198.2,0.0,-0.00016013
2024-03-29,04:05,49.3,20,49.3,49.3,31.1,0,0,0,0.0,-0.00016381
2024-03-29,04:10,48.9,20,48.9,48.9,31.6,0,0,0,0.0,-0.00013612
2024-03-29,04:15,48.7,20.1,48.7,48.7,32.0,0,0,0,0.0,-0.00014235
2024-03-29,04:20,48.3,20.7,48.3,48.3,33.2,0.6,0.1,198,0.0,-0.00016038
2024-03-29,04:25,48.3,19.7,48.3,48.3,31.9,1.4,0.3,136.8,0.0,-0.00018076
2024-03-29,04:30,48,20.9,48.0,48,33.9,3.5,1.3,230.6,0.0,-0.00014944
2024-03-29,04:35,47.9,19.8,47.9,47.9,32.5,1.3,0.4,291.2,0.0,-0.00019919
2024-03-29,04:40,47.6,21,47.6,47.6,34.6,1.8,0.4,254.3,0.0,-0.00018823
2024-03-29,04:45,47.4,20.5,47.4,47.4,34.2,1.9,1.2,307.7,0.0,-0.0001958
2024-03-29,04:50,47.3,19.7,47.3,47.3,33.1,3,2.2,286.8,0.0,-0.00016484
2024-03-29,04:55,47.3,19,47.3,47.3,32.2,1.4,0.5,282.7,0.0,-0.00018796
2024-03-29,05:00,,,,,,,,,,
2024-03-29,05:05,,,,,,,,,,
